Regional Weather Roundup
Issued by NWS Newport/Morehead, NC

Current Version | Previous Version | Graphics & Text | Print | Product List | Glossary Off
Versions: 1 2 3 4 5 6 7 8 9 10 11 12 13 14 15 16 17 18 19 20 21 22 23 24 25 26 27 28 29 30 31 32 33 34 35 36 37 38 39 40 41 42 43 44 45 46 47 48 49 50

000
ASUS42 KMHX 202222
RWRMHX
WEATHER ROUNDUP FOR EASTERN NORTH CAROLINA
NATIONAL WEATHER SERVICE NEWPORT/MOREHEAD CITY NC
600 PM EDT WED AUG 20 2014

NOTE: "FAIR" INDICATES FEW OR NO CLOUDS BELOW 12,000 FEET
WITH NO SIGNIFICANT WEATHER AND/OR OBSTRUCTIONS TO VISIBILITY

NCZ015>017-031-032-045>047-102-103-202300-
NORTH COAST

CITY           SKY/WX    TMP DP  RH WIND       PRES   REMARKS
EDENTON        MOSUNNY   82  73  72 E8        29.97S
ELIZABETH CITY MOSUNNY   82  71  69 E6        29.98R
KITTY HAWK     CLEAR     79  71  75 NE3       29.97S
MANTEO         SUNNY     79  72  78 NE5       29.99R

$$

NCZ045>047-081-094-103-104-202300-
CENTRAL COAST

CITY           SKY/WX    TMP DP  RH WIND       PRES   REMARKS
FRISCO         SUNNY     82  72  71 NE5       29.97S
SWANQUARTER      N/A     81 N/A N/A SE8       29.94S

$$

NCZ095-097-098-100-101-202300-
SOUTHERN COAST

CITY           SKY/WX    TMP DP  RH WIND       PRES   REMARKS
BEAUFORT       PTSUNNY   83  75  77 SW8       29.98R
CEDAR ISLAND     N/A     82 N/A N/A SE5       30.00S
JACKSONVILLE   CLOUDY    84  75  74 SW6       29.97S
NEWPORT        NOT AVBL
PINEY ISLAND   NOT AVBL
WILMINGTON     CLOUDY    83  74  74 CALM      29.97F


$$

NCZ011>013-027>030-043-044-078>080-089-090>093-098-202300-
COASTAL PLAIN

CITY           SKY/WX    TMP DP  RH WIND       PRES   REMARKS
AHOSKIE        MOSUNNY   83  73  71 CALM      29.97F
CLINTON        MOSUNNY   82  73  73 CALM      29.96F
ELIZABETHTOWN  MOSUNNY   86  75  70 CALM      29.96F
GOLDSBORO      MOSUNNY   89  75  63 S5        29.94F
GREENVILLE     MOSUNNY   86  72  62 NW5       29.99S
HAVELOCK       NOT AVBL
KENANSVILLE    PTSUNNY   83  73  72 CALM      29.98S
KINSTON        PTSUNNY   88  72  58 E3        29.97F
NEW BERN       CLOUDY    89  72  56 SW3       29.98S
RICHLANDS      CLOUDY    88  72  58 SW8       29.97S
ROANOKE RAPIDS NOT AVBL
ROCKY MOUNT    SUNNY     83  73  72 CALM      29.97F
WASHINGTON     MOSUNNY   86  71  60 W3        29.97S
WHITEVILLE     SUNNY     84  73  68 SE5       29.96F

$$

AMZ130-135-150-152-154-156-158-170-250-252-270-ANZ085-086-088-633-658-670-202300-
MARINE OBSERVATIONS

STATION/POSITION TIME  TEMP    WIND        PRES    WAVE   SWELL
                       AIR SEA DIR/SP/G            HT/PER HT/PER
                 (UTC) (F)     (DEG/KT/KT) (MB)    (FT/S) (FT/S)
CHESAPEAKE LIGHT 2200   76      70/  5/  6 1016.3
BUOY 44014       2200   78 79   60/  6/  8 1014.8    3/ 8   3/ 8
DUCK             2200   78 80   70/  6/  6 1014.7
2E DUCK          2100                        N/A     3/ 6
OREGON INLET     2200   79 83   60/  7/  9 1015.1
BUOY 44095       2200      80                N/A     3/ 6
20E OREGON INLET NOT AVBL
HATTERAS CG      2200   81 83   80/  2/  5 1015.5
DIAMOND BUOY     2200   78     300/  6/ 10 1014.9    2/10   2/10
CAPE LOOKOUT     2200   81     200/  6/  8 1015.1
BEAUFORT LAB     2200   82 82  230/  3/  7 1014.8
30 SE NEW RIVER  2200   82 84  230/  8/  8 1014.5    3/ 6   3/ 6
5 SE WRIGHTSVILL 2100   79 83  220/  8/ 10   N/A
BUOY 41002       2148   82 81  240/ 12/ 14 1016.6    5/ 7   3/ 7
BUOY 41004       2200   84 84  220/ 12/ 14 1014.4    3/ 5   2/ 9

$$


USA.gov is the U.S. government's official web portal to all federal, state and local government web resources and services.